STARLINK-1222 (45228 NORAD) Tracking and Keplerian Element Data

This shows tracking and keplerian element data for the satellite.

Feedback or suggestion? Click here.




ElementValue
Catalog45228
NameSTARLINK-1222
Epoch Orbit162
Epoch Day93.91667824
Epoch Year2020
RAAN44.5481
Inclination52.9969
Eccentricity0.0006286
Argument of Perigee311.0432
Mean Anonmoly72.414
Mean Motion15.62758271
Decay Rate-4.146E-05
L11 45228U 20012BC 20093.91667824 -.00004146 00000-0 -39347-4 0 9990
L22 45228 52.9969 44.5481 0006286 311.0432 72.4140 15.62758271 1626

Live tracking and technical data element details for STARLINK-1222 (NORAD 45228). STARLINK-1222 can be tracked NOW for your location showing map with azimuth and elevation plus other details from your city location.

Track the satellite on the map from your city or location and see movement details for azimuth, elevation, latitude, longitude, range, height, and movement on the map or in text.







IsCatalogInMostPopularTable: catalog: 45228, numindb: 6
Update: records affected: 1



GetName: 45228 STARLINK-1222

Hit Count: updated at: Mon, 06 Apr 2020 12:24:32 GMT